OneWeb SL0329

operational
NORAD ID: 49107 Int'l Des: 2021-075 Owner: ONEWEBN Country: UK Constellation: oneweb
LEOCIRCULARPOLARONEWEB_TYPE

About OneWeb SL0329

Description loading...

Live Position

Loading 3D Globe...

Upcoming Passes

Altitude History

Altitude vs Time

uPlot chart will show altitude changes over time

Two-Line Element Set

1 49107U 21075AJ 26061.18778413 .00000068 00000-0 14223-3 0 9999
2 49107 87.9135 27.1175 0001982 78.5784 281.5570 13.17648748219490
Epoch: Mar 2, 2026 • Age: 24 hours

Current Status

Altitude 1200.4 km
Velocity 7.25 km/s
Sub-Earth Point -16.79°S, 141.52°W
Launch Date Aug 21, 2021
Age 4.5 years
Type internet

Technical Details

Classification Payload
Mass 148.00 kg
Dry Mass 140.00 kg
Total Mass 148.00 kg
Length 1.30 m
Diameter 1.00 m
Span 5.00 m
Shape Trapezoid+2 pan
Manufacturer ONEWUS
Bus Type ARROW
Phase Status In Orbit
Owner/State ONEWEBN/UK

Large Constellations

Loading constellations...